This is the latest recevied weather packets stored in our database for station/object N8AMF. If no packets are shown the sender has not sent any weather packets the latest 10 day(s).
| Time | Temp. | Humidity | Pressure | Rain* | Wind** | Luminosity | Snow |
|---|---|---|---|---|---|---|---|
| 1778110792 | 10° C | 68% | 1012.3 hPa | 0 mm | - | 30 W/m² | - |
| 1778110489 | 10° C | 65% | 1012.3 hPa | 0 mm | - | 39 W/m² | - |
| 1778110186 | 10° C | 67% | 1012.2 hPa | 0 mm | - | 51 W/m² | - |
| 1778109883 | 10° C | 66% | 1012.3 hPa | 0 mm | - | 56 W/m² | - |
| 1778109577 | 10° C | 64% | 1012.3 hPa | 0 mm | - | 66 W/m² | - |
| 1778109275 | 10° C | 66% | 1012.1 hPa | 0 mm | - | 77 W/m² | - |
| 1778108972 | 10° C | 67% | 1012 hPa | 0 mm | - | 66 W/m² | - |
| 1778108668 | 10° C | 67% | 1012.1 hPa | 0 mm | - | 55 W/m² | - |
| 1778108365 | 10° C | 67% | 1012.3 hPa | 0 mm | - | 68 W/m² | - |
| 1778108062 | 10° C | 66% | 1012.2 hPa | 0 mm | - | 79 W/m² | - |
| 1778107759 | 10° C | 66% | 1012.3 hPa | 0 mm | - | 91 W/m² | - |
| 1778107457 | 10° C | 66% | 1012.2 hPa | 0 mm | - | 99 W/m² | - |
| 1778107153 | 10° C | 65% | 1012 hPa | 0 mm | - | 93 W/m² | - |
| 1778106848 | 10° C | 66% | 1012 hPa | 0 mm | - | 77 W/m² | - |
| 1778106546 | 10° C | 65% | 1012.3 hPa | 0 mm | - | 82 W/m² | - |
| 1778106242 | 10° C | 66% | 1012.2 hPa | 0 mm | - | 97 W/m² | - |
| 1778105939 | 10.56° C | 64% | 1012.2 hPa | 0 mm | - | 108 W/m² | - |
| 1778105636 | 10.56° C | 64% | 1012 hPa | 0 mm | - | 112 W/m² | - |
| 1778105334 | 10.56° C | 64% | 1012.1 hPa | 0 mm | - | 118 W/m² | - |
| 1778105029 | 10.56° C | 62% | 1011.9 hPa | 0 mm | - | 117 W/m² | - |
| 1778104727 | 11.11° C | 62% | 1012 hPa | 0 mm | - | 89 W/m² | - |
| 1778104423 | 11.11° C | 61% | 1011.9 hPa | 0 mm | - | 106 W/m² | - |
| 1778104119 | 11.11° C | 62% | 1011.9 hPa | 0 mm | - | 105 W/m² | - |
| 1778103816 | 10.56° C | 63% | 1011.7 hPa | 0 mm | - | 113 W/m² | - |
| 1778103514 | 11.11° C | 62% | 1011.7 hPa | 0 mm | - | 116 W/m² | - |
* Rain latest hour (hover to see other rain measurements)
** Current wind speed in m/s (hover to see current wind gust speed)